Weather History for Kemmerer, WY

Change the Weather History Date:

Tuesday, October 8, 2013

  Actual Average Record
Temperature  
Mean Temperature 48 °F -  
Max Temperature 59 °F 58 °F 84 °F (1952)
Min Temperature 37 °F 26 °F 12 °F (1990)
Degree Days  
Heating Degree Days 17    
Moisture  
Dew Point 22 °F    
Average Humidity 39    
Maximum Humidity 65    
Minimum Humidity 21    
Precipitation  
Precipitation 0.06 in - - ()
Sea Level Pressure  
Sea Level Pressure 29.93 in    
Wind  
Wind Speed 7 mph (West)    
Max Wind Speed 25 mph    
Max Gust Speed 31 mph    
Visibility 10 miles    
Events Thunderstorm    
Averages and records for this station are not official NWS values.
T = Trace of Precipitation, MM = Missing Value Source: NWS Daily Summary

Daily Weather History Graph

Daily Weather History Graph

Search for Another Location

Airport:

Trip Planner

Search our weather history database for the weather conditions in past years. The results will help you decide how hot, cold, wet, or windy it might be!

Date:

Astronomy

Oct. 08, 2013 Rise Set
Actual Time 7:27 AM MDT 6:51 PM MDT
Civil Twilight 6:59 AM MDT 7:19 PM MDT
Nautical Twilight 6:26 AM MDT 7:51 PM MDT
Astronomical Twilight 5:54 AM MDT 8:23 PM MDT
Moon 11:28 AM MDT (10/8) 9:27 PM MDT (10/8)
Length of Visible Light 12h 20m
Length of Day
11h 24m
Waxing Crescent, 16% of the Moon is Illuminated
Oct 8
Waxing Crescent
Oct 11
First Quarter
Oct 18
Full
Oct 26
Last Quarter
Nov 3
New

Hourly Weather History & Observations

Time (MDT) Temp. Windchill Dew Point Humidity Pressure Visibility Wind Dir Wind Speed Gust Speed Precip Events Conditions
12:15 AM 44.6 °F - 24.8 °F 46% 30.02 in 10.0 mi Calm Calm - N/A   Clear
12:35 AM 44.6 °F - 23.0 °F 43% 30.02 in 10.0 mi Calm Calm - N/A   Clear
12:55 AM 46.4 °F 45.2 °F 21.2 °F 37% 30.01 in 10.0 mi SSW 3.5 mph - N/A   Clear
1:15 AM 46.4 °F 44.3 °F 21.2 °F 37% 30.00 in 10.0 mi SW 4.6 mph - N/A   Clear
1:35 AM 46.4 °F 45.2 °F 21.2 °F 37% 30.00 in 10.0 mi SW 3.5 mph - N/A   Clear
1:55 AM 46.4 °F 45.2 °F 19.4 °F 34% 29.99 in 10.0 mi West 3.5 mph - N/A   Clear
2:15 AM 44.6 °F 42.2 °F 21.2 °F 39% 29.99 in 10.0 mi West 4.6 mph - N/A   Clear
2:35 AM 44.6 °F - 21.2 °F 39% 29.99 in 10.0 mi Calm Calm - N/A   Clear
2:55 AM 44.6 °F 41.4 °F 21.2 °F 39% 29.98 in 10.0 mi SW 5.8 mph - N/A   Clear
3:15 AM 42.8 °F 40.1 °F 23.0 °F 46% 29.98 in 10.0 mi SW 4.6 mph - N/A   Clear
3:35 AM 41.0 °F - 23.0 °F 49% 29.97 in 10.0 mi Calm Calm - N/A   Clear
3:55 AM 41.0 °F 37.1 °F 23.0 °F 49% 29.97 in 10.0 mi WSW 5.8 mph - N/A   Clear
4:15 AM 41.0 °F 37.1 °F 23.0 °F 49% 29.96 in 10.0 mi WSW 5.8 mph - N/A   Clear
4:55 AM 37.4 °F - 24.8 °F 60% 29.96 in 10.0 mi Calm Calm - N/A   Clear
5:15 AM 37.4 °F 33.8 °F 23.0 °F 56% 29.96 in 10.0 mi West 4.6 mph - N/A   Clear
5:35 AM 42.8 °F 39.3 °F 21.2 °F 42% 29.96 in 10.0 mi WSW 5.8 mph - N/A   Clear
5:55 AM 42.8 °F 38.6 °F 21.2 °F 42% 29.96 in 10.0 mi West 6.9 mph - N/A   Clear
6:15 AM 42.8 °F 39.3 °F 19.4 °F 39% 29.96 in 10.0 mi WSW 5.8 mph - N/A   Clear
6:35 AM 41.0 °F 36.4 °F 19.4 °F 42% 29.96 in 10.0 mi WSW 6.9 mph - N/A   Clear
6:55 AM 41.0 °F 37.1 °F 19.4 °F 42% 29.95 in 10.0 mi WSW 5.8 mph - N/A   Clear
7:35 AM 39.2 °F 37.0 °F 21.2 °F 49% 29.95 in 10.0 mi WNW 3.5 mph - N/A   Clear
8:15 AM 41.0 °F - 21.2 °F 45% 29.95 in 10.0 mi Calm Calm - N/A   Clear
8:35 AM 37.4 °F - 23.0 °F 56% 29.95 in 10.0 mi Calm Calm - N/A   Clear
8:55 AM 42.8 °F 39.3 °F 23.0 °F 46% 29.95 in 10.0 mi WSW 5.8 mph - N/A   Clear
9:15 AM 44.6 °F - 23.0 °F 43% 29.95 in 10.0 mi Calm Calm - N/A   Clear
9:35 AM 42.8 °F 41.1 °F 26.6 °F 53% 29.95 in 10.0 mi ESE 3.5 mph - N/A   Clear
10:15 AM 50.0 °F - 26.6 °F 40% 29.95 in 10.0 mi WSW 4.6 mph - 0.01 in   Clear
10:35 AM - - - N/A% - - North - - N/A   Unknown
10:55 AM 55.4 °F - 19.4 °F 25% 29.93 in 10.0 mi SW 20.7 mph 26.5 mph 0.06 in   Clear
11:15 AM 55.4 °F - 19.4 °F 25% 29.93 in - SW 16.1 mph 23.0 mph N/A   Clear
11:35 AM 55.4 °F - 17.6 °F 23% 29.93 in 10.0 mi SW 25.3 mph 31.1 mph N/A Thunderstorm Thunderstorm
11:55 AM 57.2 °F - 17.6 °F 21% 29.92 in 10.0 mi WSW 20.7 mph 26.5 mph N/A   Clear
12:15 PM 57.2 °F - 17.6 °F 21% 29.92 in 10.0 mi WSW 17.3 mph 29.9 mph N/A   Clear
12:35 PM 59.0 °F - 21.2 °F 23% 29.91 in 10.0 mi West 18.4 mph 27.6 mph N/A   Clear
12:55 PM 55.4 °F - 21.2 °F 26% 29.91 in 10.0 mi West 21.9 mph 27.6 mph N/A   Clear
1:15 PM 55.4 °F - 19.4 °F 25% 29.91 in 10.0 mi West 25.3 mph 31.1 mph N/A   Clear
1:35 PM 57.2 °F - 19.4 °F 23% 29.90 in 10.0 mi West 16.1 mph 24.2 mph N/A   Clear
1:55 PM 55.4 °F - 19.4 °F 25% 29.89 in 10.0 mi West 20.7 mph 31.1 mph N/A   Clear
2:15 PM 55.4 °F - 19.4 °F 25% 29.89 in 10.0 mi West 23.0 mph 28.8 mph N/A   Clear
2:35 PM 53.6 °F - 19.4 °F 26% 29.89 in 10.0 mi West 17.3 mph 27.6 mph N/A   Clear
2:55 PM 55.4 °F - 19.4 °F 25% 29.90 in 10.0 mi West 17.3 mph 26.5 mph N/A   Clear
3:15 PM 53.6 °F - 19.4 °F 26% 29.90 in 10.0 mi West 19.6 mph 24.2 mph N/A   Clear
3:35 PM 55.4 °F - 17.6 °F 23% 29.89 in 10.0 mi West 20.7 mph 24.2 mph N/A   Scattered Clouds
3:55 PM 57.2 °F - 17.6 °F 21% 29.89 in 10.0 mi West 21.9 mph 29.9 mph N/A   Mostly Cloudy
4:15 PM 55.4 °F - 17.6 °F 23% 29.89 in 10.0 mi WSW 18.4 mph 25.3 mph N/A   Scattered Clouds
4:35 PM 55.4 °F - 17.6 °F 23% 29.89 in 10.0 mi WSW 16.1 mph 24.2 mph N/A   Scattered Clouds
4:55 PM 55.4 °F - 19.4 °F 25% 29.89 in 10.0 mi West 16.1 mph 23.0 mph N/A   Scattered Clouds
5:15 PM 51.8 °F - 21.2 °F 30% 29.89 in 10.0 mi West 18.4 mph 25.3 mph N/A   Clear
5:35 PM 51.8 °F - 21.2 °F 30% 29.90 in 10.0 mi West 17.3 mph 23.0 mph N/A   Clear
5:55 PM 50.0 °F - 21.2 °F 32% 29.90 in 10.0 mi West 13.8 mph - N/A   Scattered Clouds
6:15 PM 50.0 °F - 23.0 °F 35% 29.90 in 10.0 mi West 11.5 mph - N/A   Clear
6:35 PM 48.2 °F - 21.2 °F 34% 29.91 in 10.0 mi West 13.8 mph - N/A   Clear
6:55 PM 46.4 °F 41.9 °F 23.0 °F 40% 29.91 in 10.0 mi West 9.2 mph - N/A   Clear
7:15 PM 44.6 °F 40.2 °F 23.0 °F 43% 29.91 in 10.0 mi West 8.1 mph - N/A   Scattered Clouds
7:35 PM 44.6 °F 40.2 °F 23.0 °F 43% 29.91 in 10.0 mi West 8.1 mph - N/A   Mostly Cloudy
7:55 PM 44.6 °F 38.8 °F 24.8 °F 46% 29.91 in 10.0 mi WNW 11.5 mph - N/A   Overcast
8:15 PM 44.6 °F 40.7 °F 24.8 °F 46% 29.91 in 10.0 mi WNW 6.9 mph - N/A   Mostly Cloudy
8:35 PM 42.8 °F - 26.6 °F 53% 29.91 in 10.0 mi Calm Calm - N/A   Overcast
8:55 PM 44.6 °F - 23.0 °F 43% 29.91 in 10.0 mi Calm Calm - N/A   Overcast
9:15 PM 44.6 °F 40.2 °F 23.0 °F 43% 29.91 in 10.0 mi WNW 8.1 mph - N/A   Scattered Clouds
9:35 PM 42.8 °F 38.6 °F 24.8 °F 49% 29.91 in 10.0 mi NW 6.9 mph - N/A   Mostly Cloudy
9:55 PM 41.0 °F 37.1 °F 26.6 °F 57% 29.91 in 10.0 mi NNW 5.8 mph - N/A   Overcast
10:15 PM 41.0 °F 37.1 °F 26.6 °F 57% 29.92 in 10.0 mi NNW 5.8 mph - N/A   Overcast
10:35 PM 41.0 °F 37.1 °F 26.6 °F 57% 29.92 in 10.0 mi NNW 5.8 mph - N/A   Overcast
10:55 PM 39.2 °F 35.9 °F 28.4 °F 65% 29.93 in 10.0 mi ESE 4.6 mph - N/A   Overcast
11:15 PM 41.0 °F - 26.6 °F 57% 29.92 in 10.0 mi Calm Calm - N/A   Overcast
11:35 PM 42.8 °F - 26.6 °F 53% 29.92 in 10.0 mi Calm Calm - N/A   Mostly Cloudy
11:55 PM 41.0 °F - 26.6 °F 57% 29.92 in 10.0 mi Calm Calm - N/A   Mostly Cloudy